Location: Unspecified
(0.0000°N, 1.0000°E)
Time: 21:25:19
(UTC+02:00)

Amateur Radio Satellites - All Passes

Search period start: 26 April 2015 20:55
Search period end: 27 April 2015 20:55
Location: Unspecified, 0.0000°N, 1.0000°E

Satellite Date Start Highest point End Downlink Frequencies (MHz)
Time Altitude Azimuth
PCSat 26 Apr 20:55:26 21:00:05 29° 249° (WSW) 21:04:40 145.827
PRISM 26 Apr 20:59:04 21:02:24 24° 281° (W) 21:05:40 437.425
BRITE-PL 26 Apr 21:06:59 21:09:44 18° 81° (E) 21:12:37 437.365/2234.400
STRAND 1 26 Apr 21:13:04 21:17:37 32° 281° (WNW) 21:22:06 437.568
CANX-2 26 Apr 21:28:31 21:30:59 16° 80° (E) 21:33:41 2200.000
CUTE 1.7 + AOD 2 26 Apr 21:37:07 21:40:00 18° 80° (E) 21:43:04 437.475
CINEMA 3 26 Apr 22:01:11 22:02:56 13° 80° (E) 22:04:59 145.822/145.860
ISS 26 Apr 22:06:34 22:09:44 59° 54° (NE) 22:12:55 145.825
JUGNU 26 Apr 22:11:37 22:17:37 73° 338° (NNW) 22:23:37 437.505
YUBILEINY 26 Apr 22:15:00 22:16:31 11° 83° (E) 22:19:08 435.215
O/OREOS (USA 219) 26 Apr 22:16:33 22:21:05 61° 105° (ESE) 22:25:37 437.305
SRMSAT 26 Apr 22:22:26 22:28:14 49° 160° (SSE) 22:34:01 437.500
COMPASS 1 26 Apr 22:25:40 22:29:49 58° 79° (E) 22:33:58 437.405
GOMX 1 26 Apr 22:26:46 22:30:50 52° 259° (W) 22:34:52 467.674
HO-68 26 Apr 22:35:58 22:43:08 73° 256° (WSW) 22:50:17 435.675
DELFI C3 26 Apr 22:38:27 22:41:03 17° 80° (E) 22:43:47 145.870
BRITE-PL 26 Apr 22:45:31 22:48:12 16° 259° (W) 22:50:39 437.365/2234.400
Oscar 11 26 Apr 22:46:46 22:50:41 34° 79° (E) 22:54:39 145.826/435.025
SO-50 26 Apr 22:50:19 22:54:53 43° 67° (ENE) 22:59:23 436.795
ZACube-1 26 Apr 22:50:45 22:53:22 17° 80° (E) 22:56:13 437.345
SEEDS 26 Apr 22:52:44 22:56:45 40° 259° (W) 23:00:45 437.485
DOVE 4 26 Apr 22:59:08 23:02:50 30° 259° (W) 23:06:28 437.250
CANX-2 26 Apr 23:03:32 23:06:48 21° 260° (W) 23:09:56 2200.000
AAUSAT CUBESAT 2 26 Apr 23:07:41 23:11:38 38° 259° (W) 23:15:33 437.432
UNISAT 6 26 Apr 23:11:39 23:12:52 11° 99° (E) 23:14:26 437.425
CUTE 1.7 + AOD 2 26 Apr 23:12:51 23:15:49 18° 260° (W) 23:18:34 437.475
DX 1 26 Apr 23:22:19 23:25:54 26° 79° (E) 23:29:33 434.975-435.025
Cosmos 2491 26 Apr 23:27:17 23:35:51 63° 94° (E) 23:44:26 435.465 / 435.565
CUBEBUG 2 26 Apr 23:28:32 23:32:43 72° 259° (WSW) 23:36:59 437.445
CINEMA 3 26 Apr 23:36:42 23:40:04 23° 260° (W) 23:43:20 145.822/145.860
QB50P1 26 Apr 23:47:57 23:50:03 14° 100° (E) 23:52:25 145.935-145.965
ANTELSAT 26 Apr 23:50:46 23:55:04 42° 101° (E) 23:59:21 437.575/2403.000
UWE-3 26 Apr 23:52:51 23:56:49 40° 259° (W) 00:00:50 435.000/436.395/437.385
ESTCUBE 1 26 Apr 23:58:47 00:01:05 14° 80° (E) 00:03:39 437.505/2401.250
FUNcube-1 26 Apr 23:59:45 00:03:46 44° 259° (W) 00:07:50 145.935
JUGNU 27 Apr 00:01:46 00:06:51 28° 342° (NNW) 00:11:52 437.505
UKube-1 27 Apr 00:03:16 00:07:37 83° 258° (WSW) 00:11:55 .
YUBILEINY 27 Apr 00:04:49 00:13:30 75° 266° (W) 00:22:10 435.215
SRMSAT 27 Apr 00:11:33 00:17:29 61° 339° (NNW) 00:23:23 437.500
HUMSAT D 27 Apr 00:12:32 00:16:41 75° 258° (WSW) 00:20:51 437.325/437.525
QB50P2 27 Apr 00:12:42 00:16:33 33° 101° (E) 00:20:28 145.880/145.840
DELFI C3 27 Apr 00:13:17 00:16:04 17° 260° (W) 00:18:39 145.870
ZACube-1 27 Apr 00:26:36 00:29:38 19° 260° (W) 00:32:31 437.345
NANOSAT C BR1 27 Apr 00:29:48 00:34:00 58° 101° (ESE) 00:38:13 145.865
VELOX 1 27 Apr 00:32:36 00:37:02 83° 256° (WSW) 00:41:26 145.980
POPSAT HIP 1 27 Apr 00:33:23 00:37:39 67° 101° (E) 00:41:56 437.405
CUBEBUG 1 27 Apr 00:35:24 00:39:28 39° 79° (E) 00:43:32 437.445
TIGRISAT 27 Apr 00:40:31 00:44:48 39° 282° (WNW) 00:49:00 435.000
UNISAT 6 27 Apr 00:45:27 00:49:34 32° 281° (WNW) 00:53:34 437.425
AISAT 27 Apr 00:51:08 00:55:20 42° 259° (WSW) 00:59:27 437.250
BUGSAT 1 27 Apr 00:52:38 00:56:51 81° 100° (E) 01:01:08 437.445
50 SAT 27 Apr 00:54:31 00:58:00 30° 259° (W) 01:01:29 437.505
VERMONT LUNAR 27 Apr 00:58:37 01:00:55 18° 41° (NE) 01:03:17 437.305
RS-15 27 Apr 00:58:38 01:08:13 30° 66° (ENE) 01:18:36 29.354- 29.394
DX 1 27 Apr 01:00:00 01:02:02 13° 259° (W) 01:03:46 434.975-435.025
DUCHIFAT 1 27 Apr 01:03:31 01:07:36 44° 281° (W) 01:11:41 145.980
POLYITAN 1 27 Apr 01:03:49 01:07:53 41° 281° (W) 01:11:57 437.675
AIST 1 27 Apr 01:06:21 01:10:23 37° 95° (E) 01:14:24
TISAT 1 27 Apr 01:18:20 01:21:21 20° 80° (E) 01:24:31 437.305
QB50P1 27 Apr 01:22:19 01:25:48 23° 280° (W) 01:29:10 145.935-145.965
Cosmos 2491 27 Apr 01:28:02 01:32:45 14° 277° (W) 01:36:36 435.465 / 435.565
ESTCUBE 1 27 Apr 01:34:03 01:37:51 26° 259° (W) 01:41:32 437.505/2401.250
PHONESAT 2.4 27 Apr 01:38:32 01:39:25 11° 40° (NE) 01:40:29 2401.200-2431.200
SPROUT 27 Apr 01:51:40 01:55:57 89° 258° (WSW) 02:00:12 437.525
JUGNU 27 Apr 01:53:40 01:56:33 13° 350° (N) 01:59:20 437.505
Cosmos 2504 27 Apr 02:01:15 02:08:17 49° 85° (E) 02:15:11 435.465 / 435.565
SRMSAT 27 Apr 02:02:11 02:06:55 24° 343° (NNW) 02:11:35 437.500
BEESAT 3 27 Apr 02:20:45 02:24:44 82° 291° (WNW) 02:28:46 437.485
BEESAT 2 27 Apr 02:23:32 02:27:33 83° 113° (ESE) 02:31:37 435.950
BEESAT 27 Apr 02:23:37 02:26:30 17° 79° (E) 02:29:37 436.000
SWISSCUBE 27 Apr 02:25:50 02:29:13 20° 79° (E) 02:32:47 437.505
VERMONT LUNAR 27 Apr 02:35:36 02:38:18 22° 222° (SW) 02:40:56 437.305
TISAT 1 27 Apr 02:54:31 02:57:01 15° 260° (W) 02:59:19 437.305
Oscar 19 27 Apr 03:04:12 03:09:23 84° 101° (ESE) 03:14:35 437.125/150
RS-15 27 Apr 03:09:04 03:20:42 52° 247° (WSW) 03:32:22 29.354- 29.394
PHONESAT 2.4 27 Apr 03:14:15 03:17:39 45° 223° (SW) 03:21:01 2401.200-2431.200
ITUPSAT 1 27 Apr 03:29:21 03:34:08 65° 258° (WSW) 03:38:54 437.325
AIST 2 27 Apr 03:30:56 03:34:58 49° 292° (WNW) 03:39:02 435.215
KKS-1 27 Apr 03:37:29 03:40:16 17° 80° (E) 03:43:14 437.445
ITAMSAT 1 27 Apr 03:41:29 03:46:29 51° 102° (ESE) 03:51:33 435.822/435.867
SRMSAT 27 Apr 03:54:36 03:56:51 12° 352° (N) 03:59:02 437.500
Cosmos 2504 27 Apr 03:57:29 04:01:35 15° 264° (W) 04:05:01 435.465 / 435.565
BEESAT 27 Apr 04:00:15 04:04:14 25° 259° (WSW) 04:08:05 436.000
SWISSCUBE 27 Apr 04:03:17 04:06:58 21° 259° (W) 04:10:28 437.505
Gurwin Techsat 1B 27 Apr 04:17:51 04:23:08 70° 282° (WNW) 04:28:25 435.225
STARS 27 Apr 04:27:51 04:32:04 49° 79° (E) 04:36:18 437.465
GONETS M04 27 Apr 04:29:18 04:36:08 27° 85° (E) 04:43:20
HORYU 2 27 Apr 04:34:44 04:38:11 23° 101° (E) 04:41:46 437.375
AO-7 27 Apr 04:35:24 04:41:37 25° 105° (ESE) 04:48:14 29.400- 29.500
CUSAT 1 27 Apr 05:03:12 05:10:09 31° 82° (E) 05:16:51 437.405
KKS-1 27 Apr 05:13:26 05:16:47 20° 259° (W) 05:19:59 437.445
JUGNU 27 Apr 05:34:06 05:36:46 13° 10° (N) 05:39:32 437.505
JAS-2 27 Apr 05:35:17 05:40:43 74° 101° (E) 05:45:54 435.910
MOZHAYETS 4 27 Apr 05:48:13 05:52:26 35° 79° (E) 05:56:40
DANDE 27 Apr 05:49:07 05:57:32 63° 84° (E) 06:05:31 436.750
HORYU 2 27 Apr 06:12:00 06:14:43 15° 281° (W) 06:17:13 437.375
Cosmos 2499 27 Apr 06:21:01 06:25:20 18° 83° (E) 06:30:05 435.465 / 435.565
GONETS M04 27 Apr 06:24:49 06:32:52 38° 265° (W) 06:40:41
AO-7 27 Apr 06:26:27 06:34:17 44° 285° (WNW) 06:42:03 29.400- 29.500
CUTE-I 27 Apr 06:44:37 06:45:15 10° 101° (E) 06:46:23 437.470
CUSAT 1 27 Apr 06:45:20 06:52:48 36° 265° (W) 06:59:30 437.405
Cubesat XI-IV 27 Apr 06:52:40 06:55:19 15° 101° (E) 06:58:21 437.490
AUBIESAT-1 27 Apr 07:00:51 07:03:15 15° 75° (ENE) 07:05:59 437.475
JUGNU 27 Apr 07:21:33 07:26:27 27° 17° (NNE) 07:31:23 437.505
MOZHAYETS 4 27 Apr 07:28:13 07:29:34 11° 260° (W) 07:30:31
CUBESAT XI-V 27 Apr 07:28:33 07:32:37 30° 79° (E) 07:36:42 437.345
PRISM 27 Apr 07:28:51 07:31:00 14° 80° (E) 07:33:21 437.425
SRMSAT 27 Apr 07:34:12 07:37:22 15° 12° (NNE) 07:40:37 437.500
DANDE 27 Apr 07:35:00 07:40:39 18° 264° (W) 07:45:30 436.750
PCSat 27 Apr 07:47:52 07:53:09 57° 110° (ESE) 07:58:27 145.827
M-CUBED/EXP-1 PRIME 27 Apr 07:52:12 07:56:43 89° 75° (ENE) 08:01:28 437.505
STRAND 1 27 Apr 08:06:42 08:11:24 38° 79° (ENE) 08:16:08 437.568
Cosmos 2499 27 Apr 08:11:47 08:18:26 40° 266° (W) 08:24:52 435.465 / 435.565
CUTE-I 27 Apr 08:20:08 08:25:15 48° 282° (WNW) 08:30:23 437.470
Cubesat XI-IV 27 Apr 08:30:27 08:35:19 36° 282° (WNW) 08:40:09 437.490
AUBIESAT-1 27 Apr 08:33:55 08:37:51 29° 256° (WSW) 08:41:53 437.475
PRISM 27 Apr 09:03:03 09:06:20 22° 259° (W) 09:09:30 437.425
CUBESAT XI-V 27 Apr 09:07:43 09:09:56 13° 260° (W) 09:11:50 437.345
JUGNU 27 Apr 09:09:47 09:15:38 72° 21° (NNE) 09:21:30 437.505
GOMX 1 27 Apr 09:12:56 09:16:29 19° 100° (E) 09:20:20 467.674
SRMSAT 27 Apr 09:21:54 09:27:06 32° 19° (NNE) 09:32:21 437.500
BRITE-PL 27 Apr 09:30:46 09:36:09 52° 101° (E) 09:41:43 437.365/2234.400
CANX-2 27 Apr 09:34:56 09:37:53 19° 100° (E) 09:41:00 2200.000
ISS 27 Apr 09:39:47 09:42:42 32° 126° (SE) 09:45:39 145.825
DOVE 4 27 Apr 09:42:02 09:46:14 25° 100° (E) 09:50:35 437.250
CUTE 1.7 + AOD 2 27 Apr 09:43:33 09:46:48 22° 100° (E) 09:50:11 437.475
STRAND 1 27 Apr 09:48:10 09:50:31 13° 259° (W) 09:52:27 437.568
Cosmos 2491 27 Apr 10:09:40 10:12:39 13° 83° (E) 10:16:38 435.465 / 435.565
CINEMA 3 27 Apr 10:15:46 10:19:55 27° 100° (E) 10:24:06 145.822/145.860
HO-68 27 Apr 10:27:30 10:34:40 86° 284° (WNW) 10:41:51 435.675
O/OREOS (USA 219) 27 Apr 10:27:33 10:32:00 77° 257° (WSW) 10:36:27 437.305
UWE-3 27 Apr 10:30:22 10:32:12 13° 99° (E) 10:34:21 435.000/436.395/437.385
COMPASS 1 27 Apr 10:30:41 10:34:49 69° 101° (E) 10:38:57 437.405
FUNcube-1 27 Apr 10:37:01 10:37:45 11° 99° (E) 10:38:52 145.935
DELFI C3 27 Apr 10:39:18 10:41:50 17° 100° (E) 10:44:33 145.870
YUBILEINY 27 Apr 10:43:36 10:50:25 27° 95° (E) 10:57:37 435.215
GOMX 1 27 Apr 10:49:37 10:54:27 32° 281° (W) 10:59:14 467.674
Oscar 11 27 Apr 10:55:27 10:59:34 46° 101° (E) 11:03:44 145.826/435.025
SEEDS 27 Apr 10:58:53 11:02:40 33° 281° (W) 11:06:25 437.485
JUGNU 27 Apr 10:59:14 11:04:43 41° 200° (SSW) 11:10:11 437.505
ZACube-1 27 Apr 11:00:14 11:03:53 25° 100° (E) 11:07:35 437.345
SO-50 27 Apr 11:03:04 11:07:28 80° 112° (ESE) 11:12:01 436.795
SRMSAT 27 Apr 11:10:27 11:16:23 87° 18° (NNE) 11:22:22 437.500
CANX-2 27 Apr 11:10:58 11:13:42 16° 280° (W) 11:16:14 2200.000
AAUSAT CUBESAT 2 27 Apr 11:12:25 11:16:09 32° 281° (W) 11:19:50 437.432
BRITE-PL 27 Apr 11:12:46 11:14:39 11° 279° (W) 11:16:01 437.365/2234.400
TIGRISAT 27 Apr 11:19:14 11:21:19 14° 79° (E) 11:23:42 435.000
DOVE 4 27 Apr 11:19:45 11:23:50 22° 280° (W) 11:27:44 437.250
CUTE 1.7 + AOD 2 27 Apr 11:20:21 11:22:37 14° 280° (W) 11:24:38 437.475
UNISAT 6 27 Apr 11:23:36 11:26:20 17° 79° (E) 11:29:18 437.425
AISAT 27 Apr 11:29:28 11:31:09 12° 100° (E) 11:33:10 437.250
DX 1 27 Apr 11:31:44 11:35:43 36° 102° (ESE) 11:39:46 434.975-435.025
CUBEBUG 2 27 Apr 11:41:15 11:45:48 48° 281° (W) 11:50:14 437.445
CINEMA 3 27 Apr 11:53:38 11:56:58 17° 280° (W) 12:00:00 145.822/145.860
QB50P1 27 Apr 11:54:11 11:56:47 17° 80° (E) 11:59:34 145.935-145.965
Cosmos 2491 27 Apr 12:00:50 12:09:37 70° 266° (W) 12:18:22 435.465 / 435.565
ANTELSAT 27 Apr 12:04:07 12:08:28 66° 79° (E) 12:12:55 437.575/2403.000
UWE-3 27 Apr 12:04:35 12:08:39 30° 281° (W) 12:12:34 435.000/436.395/437.385
FUNcube-1 27 Apr 12:09:56 12:14:01 33° 281° (W) 12:17:59 145.935
ESTCUBE 1 27 Apr 12:12:02 12:15:26 22° 101° (E) 12:19:00 437.505/2401.250
UKube-1 27 Apr 12:12:19 12:16:35 61° 282° (WNW) 12:20:53 .
DELFI C3 27 Apr 12:14:16 12:16:51 16° 280° (W) 12:19:16 145.870
HUMSAT D 27 Apr 12:18:12 12:22:26 61° 281° (WNW) 12:26:36 437.325/437.525
QB50P2 27 Apr 12:19:32 12:23:30 41° 79° (ENE) 12:27:29 145.880/145.840
VERMONT LUNAR 27 Apr 12:33:21 12:34:53 13° 139° (SE) 12:36:33 437.305
NANOSAT C BR1 27 Apr 12:36:20 12:40:31 73° 79° (E) 12:44:42 145.865
ZACube-1 27 Apr 12:37:32 12:40:06 14° 280° (W) 12:42:25 437.345
YUBILEINY 27 Apr 12:39:01 12:47:08 39° 275° (W) 12:55:03 435.215
POPSAT HIP 1 27 Apr 12:40:14 12:44:27 85° 79° (E) 12:48:38 437.405
RS-15 27 Apr 12:43:05 12:50:41 22° 116° (ESE) 12:58:53 29.354- 29.394
VELOX 1 27 Apr 12:44:43 12:49:05 55° 281° (WNW) 12:53:28 145.980
CUBEBUG 1 27 Apr 12:45:30 12:49:48 57° 101° (ESE) 12:54:09 437.445
JUGNU 27 Apr 12:50:19 12:54:09 17° 194° (SSW) 12:57:55 437.505
50 SAT 27 Apr 12:52:52 12:56:27 32° 281° (W) 12:59:58 437.505
TIGRISAT 27 Apr 12:54:18 12:57:57 25° 260° (W) 13:01:32 435.000
BUGSAT 1 27 Apr 12:56:39 13:00:43 88° 258° (WSW) 13:04:44 437.445
UNISAT 6 27 Apr 12:59:39 13:03:00 21° 260° (W) 13:06:15 437.425
SRMSAT 27 Apr 13:00:19 13:05:41 35° 199° (SSW) 13:11:03 437.500
AISAT 27 Apr 13:03:43 13:07:38 29° 281° (W) 13:11:29 437.250
DUCHIFAT 1 27 Apr 13:10:07 13:13:57 34° 259° (W) 13:17:44 145.980
POLYITAN 1 27 Apr 13:11:09 13:14:56 32° 259° (W) 13:18:39 437.675
AIST 1 27 Apr 13:12:53 13:17:03 53° 85° (E) 13:21:19
TISAT 1 27 Apr 13:23:53 13:27:22 25° 101° (E) 13:30:57 437.305
QB50P1 27 Apr 13:29:33 13:32:33 18° 260° (W) 13:35:22 145.935-145.965
ESTCUBE 1 27 Apr 13:49:18 13:52:12 16° 280° (W) 13:54:53 437.505/2401.250
SPROUT 27 Apr 13:59:49 14:04:07 67° 281° (WNW) 14:08:26 437.525
Oscar 19 27 Apr 14:01:49 14:03:53 13° 79° (E) 14:06:20 437.125/150
VERMONT LUNAR 27 Apr 14:09:17 14:12:17 31° 318° (NW) 14:15:17 437.305
Cosmos 2504 27 Apr 14:10:33 14:19:04 69° 94° (E) 14:27:55 435.465 / 435.565
BEESAT 3 27 Apr 14:15:35 14:19:32 73° 248° (WSW) 14:23:28 437.485
ITUPSAT 1 27 Apr 14:16:57 14:18:46 13° 101° (E) 14:20:57 437.325
BEESAT 2 27 Apr 14:19:05 14:23:06 85° 243° (WSW) 14:27:03 435.950
JUGNU 27 Apr 14:43:31 14:44:06 10° 184° (S) 14:44:37 437.505
BEESAT 27 Apr 14:44:28 14:48:36 31° 101° (ESE) 14:52:51 436.000
SWISSCUBE 27 Apr 14:47:03 14:51:25 38° 102° (ESE) 14:55:51 437.505
SRMSAT 27 Apr 14:51:51 14:55:25 16° 192° (SSW) 14:58:53 437.500
RS-15 27 Apr 14:52:20 15:03:10 58° 292° (WNW) 15:13:41 29.354- 29.394
PHONESAT 2.4 27 Apr 14:53:44 14:57:12 55° 317° (NW) 15:00:40 2401.200-2431.200
TISAT 1 27 Apr 15:01:00 15:03:02 13° 280° (W) 15:04:47 437.305
Gurwin Techsat 1B 27 Apr 15:18:01 15:21:55 22° 79° (E) 15:26:01 435.225
AIST 2 27 Apr 15:30:10 15:34:00 37° 248° (WSW) 15:37:46 435.215
Oscar 19 27 Apr 15:38:25 15:43:09 37° 258° (WSW) 15:47:49 437.125/150
KKS-1 27 Apr 15:49:20 15:53:01 26° 101° (E) 15:56:48 437.445
ITUPSAT 1 27 Apr 15:52:19 15:56:34 32° 281° (W) 16:00:47 437.325
Cosmos 2504 27 Apr 16:08:11 16:12:39 14° 277° (W) 16:16:15 435.465 / 435.565
ITAMSAT 1 27 Apr 16:16:33 16:21:41 59° 258° (WSW) 16:26:46 435.822/435.867
BEESAT 27 Apr 16:24:05 16:26:22 13° 280° (W) 16:28:19 436.000
SWISSCUBE 27 Apr 16:28:14 16:29:12 10° 280° (W) 16:29:44 437.505
JUGNU 27 Apr 16:33:00 16:34:16 11° 174° (S) 16:35:36 437.505
STARS 27 Apr 16:38:58 16:43:23 73° 101° (E) 16:47:50 437.465
SRMSAT 27 Apr 16:45:14 16:45:37 10° 183° (S) 16:45:59 437.500
HORYU 2 27 Apr 16:47:05 16:51:07 34° 79° (ENE) 16:55:12 437.375
Gurwin Techsat 1B 27 Apr 16:57:30 17:01:47 24° 259° (WSW) 17:05:54 435.225
AO-7 27 Apr 17:00:39 17:08:12 41° 75° (ENE) 17:15:51 29.400- 29.500
GONETS M04 27 Apr 17:01:27 17:09:50 54° 94° (E) 17:18:19
JAS-2 27 Apr 17:05:24 17:12:31 46° 78° (ENE) 17:19:59 435.910
KKS-1 27 Apr 17:27:04 17:29:33 14° 280° (W) 17:31:44 437.445
CUSAT 1 27 Apr 17:49:17 17:51:54 54° 95° (E) 17:54:57 437.405
MOZHAYETS 4 27 Apr 18:04:50 18:09:18 60° 101° (E) 18:13:48
JUGNU 27 Apr 18:20:02 18:24:10 19° 165° (SSE) 18:28:24 437.505
Cosmos 2499 27 Apr 18:27:39 18:34:49 30° 95° (E) 18:42:24 435.465 / 435.565
SRMSAT 27 Apr 18:33:48 18:35:58 12° 172° (S) 18:38:12 437.500
DANDE 27 Apr 18:41:44 18:43:44 19° 279° (W) 18:45:49 436.750
PCSat 27 Apr 18:44:28 18:45:59 11° 67° (ENE) 18:47:56 145.827
JAS-2 27 Apr 18:51:39 18:57:27 23° 260° (W) 19:03:02 435.910
AO-7 27 Apr 18:54:05 19:00:52 27° 255° (WSW) 19:07:17 29.400- 29.500
GONETS M04 27 Apr 19:00:50 19:06:39 18° 276° (W) 19:11:50
CUTE-I 27 Apr 19:20:16 19:24:57 32° 79° (ENE) 19:29:42 437.470
Cubesat XI-IV 27 Apr 19:30:08 19:35:11 43° 78° (ENE) 19:40:14 437.490
PRISM 27 Apr 19:32:20 19:34:42 16° 101° (E) 19:37:17 437.425
CUBESAT XI-V 27 Apr 19:46:31 19:51:01 54° 101° (ESE) 19:55:35 437.345
M-CUBED/EXP-1 PRIME 27 Apr 19:56:02 19:59:38 85° 287° (WNW) 20:03:01 437.505
JUGNU 27 Apr 20:07:52 20:13:34 46° 160° (SSE) 20:19:19 437.505
Cosmos 2499 27 Apr 20:19:57 20:27:51 37° 275° (W) 20:35:38 435.465 / 435.565
SRMSAT 27 Apr 20:21:21 20:25:58 23° 164° (SSE) 20:30:39 437.500
PCSat 27 Apr 20:24:14 20:29:22 45° 250° (WSW) 20:34:29 145.827
AUBIESAT-1 27 Apr 20:37:25 20:40:08 20° 285° (WNW) 20:42:39 437.475
STRAND 1 27 Apr 20:38:52 20:43:59 85° 282° (WNW) 20:49:07 437.568
